"Serial No","Timestamp","Temperature","Humidity","latitude","longitude"
"1392904597","2014/02/20 19:26:37","29.4","73","13.00361","77.61818"
"1392904853","2014/02/20 19:30:53","30.1","61","13.00361","77.61818"
"1392904956","2014/02/20 19:32:36","30.4","59","13.00361","77.61818"
"1392905507","2014/02/20 19:41:47","30.4","49","13.00361","77.61818"
"1392905712","2014/02/20 19:45:12","30","57","13.00361","77.61818"
"1392906064","2014/02/20 19:51:04","30.8","59","13.00361","77.61818"
"1392906371","2014/02/20 19:56:11","30.2","48","13.00361","77.61818"
"1392906680","2014/02/20 20:01:20","29","50","13.00361","77.61818"
"1392906936","2014/02/20 20:05:36","28.3","51","13.00361","77.61818"
"1392907244","2014/02/20 20:10:44","27.6","52","13.00361","77.61818"
"1392907551","2014/02/20 20:15:51","27","53","13.00361","77.61818"
"1392907858","2014/02/20 20:20:58","26.6","54","13.00361","77.61818"
"1392908167","2014/02/20 20:26:07","26.2","55","13.00361","77.61818"
"1392908475","2014/02/20 20:31:15","25.9","55","13.00361","77.61818"
"1392908781","2014/02/20 20:36:21","25.6","56","13.00361","77.61818"
"1392909089","2014/02/20 20:41:29","25.4","56","13.00361","77.61818"
"1392909396","2014/02/20 20:46:36","25.2","57","13.00361","77.61818"
"1392909704","2014/02/20 20:51:44","25.1","57","13.00361","77.61818"
"1392910012","2014/02/20 20:56:52","24.9","57","13.00361","77.61818"
"1392910319","2014/02/20 21:01:59","24.8","58","13.00361","77.61818"
"1392910620","2014/02/20 21:07:00","24.8","58","13.00361","77.61818"
"1392910877","2014/02/20 21:11:17","24.6","58","13.00361","77.61818"
"1392911184","2014/02/20 21:16:24","24.6","58","13.00361","77.61818"
"1392911492","2014/02/20 21:21:32","24.5","59","13.00361","77.61818"
"1392911800","2014/02/20 21:26:40","24.4","59","13.00361","77.61818"
"1392912107","2014/02/20 21:31:47","24.3","59","13.00361","77.61818"
"1392912415","2014/02/20 21:36:55","24.3","60","13.00361","77.61818"
"1392912723","2014/02/20 21:42:03","24.2","60","13.00361","77.61818"
"1392913030","2014/02/20 21:47:10","24.2","61","13.00361","77.61818"
"1392913338","2014/02/20 21:52:18","24.1","61","13.00361","77.61818"
"1392913645","2014/02/20 21:57:25","24.1","61","13.00361","77.61818"
"1392913953","2014/02/20 22:02:33","24","62","13.00361","77.61818"
"1392914261","2014/02/20 22:07:41","24","62","13.00361","77.61818"
"1392914568","2014/02/20 22:12:48","23.9","62","13.00361","77.61818"
"1392914876","2014/02/20 22:17:56","23.9","63","13.00361","77.61818"
"1392915183","2014/02/20 22:23:03","23.8","63","13.00361","77.61818"
"1392915491","2014/02/20 22:28:11","23.8","63","13.00361","77.61818"
"1392915799","2014/02/20 22:33:19","23.7","63","13.00361","77.61818"
"1392916105","2014/02/20 22:38:25","23.6","64","13.00361","77.61818"
"1392916413","2014/02/20 22:43:33","23.6","64","13.00361","77.61818"
"1392916721","2014/02/20 22:48:41","23.6","64","13.00361","77.61818"
"1392917028","2014/02/20 22:53:48","23.5","64","13.00361","77.61818"
"1392917284","2014/02/20 22:58:04","23.4","65","13.00361","77.61818"
"1392917592","2014/02/20 23:03:12","23.4","65","13.00361","77.61818"
"1392917900","2014/02/20 23:08:20","23.3","65","13.00361","77.61818"
"1392918207","2014/02/20 23:13:27","23.3","65","13.00361","77.61818"
"1392918516","2014/02/20 23:18:36","23.2","66","13.00361","77.61818"
"1392918824","2014/02/20 23:23:44","23.2","66","13.00361","77.61818"
"1392919130","2014/02/20 23:28:50","23.1","67","13.00361","77.61818"
"1392919438","2014/02/20 23:33:58","23","67","13.00361","77.61818"
"1392919746","2014/02/20 23:39:06","23","68","13.00361","77.61818"
"1392920054","2014/02/20 23:44:14","22.9","68","13.00361","77.61818"
"1392920361","2014/02/20 23:49:21","22.9","68","13.00361","77.61818"
"1392920668","2014/02/20 23:54:28","22.8","69","13.00361","77.61818"
"1392920976","2014/02/20 23:59:36","22.7","69","13.00361","77.61818"
"1392921232","2014/02/21 00:03:52","22.7","70","13.00361","77.61818"
"1392921540","2014/02/21 00:09:00","22.6","70","13.00361","77.61818"
"1392921847","2014/02/21 00:14:07","22.6","70","13.00361","77.61818"
"1392922155","2014/02/21 00:19:15","22.5","70","13.00361","77.61818"
"1392922463","2014/02/21 00:24:23","22.5","71","13.00361","77.61818"
"1392922771","2014/02/21 00:29:31","22.5","71","13.00361","77.61818"
"1392923079","2014/02/21 00:34:39","22.4","72","13.00361","77.61818"
"1392923386","2014/02/21 00:39:46","22.3","72","13.00361","77.61818"
"1392923693","2014/02/21 00:44:53","22.3","73","13.00361","77.61818"
"1392924001","2014/02/21 00:50:01","22.2","73","13.00361","77.61818"
"1392924308","2014/02/21 00:55:08","22.2","73","13.00361","77.61818"
"1392924616","2014/02/21 01:00:16","22.2","73","13.00361","77.61818"
"1392924924","2014/02/21 01:05:24","22.2","73","13.00361","77.61818"
"1392925180","2014/02/21 01:09:40","22.2","73","13.00361","77.61818"
"1392925488","2014/02/21 01:14:48","22.2","73","13.00361","77.61818"
"1392925795","2014/02/21 01:19:55","22.2","73","13.00361","77.61818"
"1392926103","2014/02/21 01:25:03","22.1","74","13.00361","77.61818"
"1392926410","2014/02/21 01:30:10","22.1","74","13.00361","77.61818"
"1392926718","2014/02/21 01:35:18","22.1","74","13.00361","77.61818"
"1392927025","2014/02/21 01:40:25","22","74","13.00361","77.61818"
"1392927332","2014/02/21 01:45:32","22","74","13.00361","77.61818"
"1392927640","2014/02/21 01:50:40","21.9","74","13.00361","77.61818"
"1392927948","2014/02/21 01:55:48","21.9","74","13.00361","77.61818"
"1392928255","2014/02/21 02:00:55","21.9","75","13.00361","77.61818"
"1392928563","2014/02/21 02:06:03","21.8","75","13.00361","77.61818"
"1392928870","2014/02/21 02:11:10","21.8","75","13.00361","77.61818"
"1392929178","2014/02/21 02:16:18","21.8","75","13.00361","77.61818"
"1392929435","2014/02/21 02:20:35","21.8","75","13.00361","77.61818"
"1392929743","2014/02/21 02:25:43","21.8","75","13.00361","77.61818"
"1392930050","2014/02/21 02:30:50","21.8","75","13.00361","77.61818"
"1392930357","2014/02/21 02:35:57","21.8","75","13.00361","77.61818"
"1392930665","2014/02/21 02:41:05","21.7","75","13.00361","77.61818"
"1392930972","2014/02/21 02:46:12","21.7","75","13.00361","77.61818"
"1392931281","2014/02/21 02:51:21","21.7","75","13.00361","77.61818"
"1392931589","2014/02/21 02:56:29","21.7","75","13.00361","77.61818"
"1392931895","2014/02/21 03:01:35","21.7","75","13.00361","77.61818"
"1392932203","2014/02/21 03:06:43","21.7","75","13.00361","77.61818"
"1392932510","2014/02/21 03:11:50","21.6","75","13.00361","77.61818"
"1392932766","2014/02/21 03:16:06","21.6","75","13.00361","77.61818"
"1392933075","2014/02/21 03:21:15","21.6","75","13.00361","77.61818"
"1392933382","2014/02/21 03:26:22","21.5","75","13.00361","77.61818"
"1392933690","2014/02/21 03:31:30","21.5","75","13.00361","77.61818"
"1392933997","2014/02/21 03:36:37","21.5","75","13.00361","77.61818"
"1392934305","2014/02/21 03:41:45","21.5","76","13.00361","77.61818"
"1392934613","2014/02/21 03:46:53","21.4","76","13.00361","77.61818"
"1392934920","2014/02/21 03:52:00","21.4","76","13.00361","77.61818"
"1392935228","2014/02/21 03:57:08","21.4","76","13.00361","77.61818"
"1392935534","2014/02/21 04:02:14","21.4","76","13.00361","77.61818"
"1392935842","2014/02/21 04:07:22","21.4","76","13.00361","77.61818"
"1392936151","2014/02/21 04:12:31","21.4","76","13.00361","77.61818"
"1392936407","2014/02/21 04:16:47","21.4","76","13.00361","77.61818"
"1392936715","2014/02/21 04:21:55","21.4","76","13.00361","77.61818"
"1392937022","2014/02/21 04:27:02","21.4","76","13.00361","77.61818"
"1392937330","2014/02/21 04:32:10","21.3","76","13.00361","77.61818"
"1392937637","2014/02/21 04:37:17","21.3","76","13.00361","77.61818"
"1392937945","2014/02/21 04:42:25","21.3","76","13.00361","77.61818"
"1392938253","2014/02/21 04:47:33","21.2","76","13.00361","77.61818"
"1392938560","2014/02/21 04:52:40","21.2","76","13.00361","77.61818"
"1392938868","2014/02/21 04:57:48","21.2","76","13.00361","77.61818"
"1392939176","2014/02/21 05:02:56","21.2","76","13.00361","77.61818"
"1392939483","2014/02/21 05:08:03","21.2","76","13.00361","77.61818"
"1392939791","2014/02/21 05:13:11","21.2","76","13.00361","77.61818"
"1392940047","2014/02/21 05:17:27","21.1","76","13.00361","77.61818"
"1392940354","2014/02/21 05:22:34","21.1","76","13.00361","77.61818"
"1392940661","2014/02/21 05:27:41","21","76","13.00361","77.61818"
"1392940969","2014/02/21 05:32:49","21","76","13.00361","77.61818"
"1392941277","2014/02/21 05:37:57","21","76","13.00361","77.61818"
"1392941584","2014/02/21 05:43:04","20.9","76","13.00361","77.61818"
"1392941892","2014/02/21 05:48:12","20.9","76","13.00361","77.61818"
"1392942199","2014/02/21 05:53:19","20.9","77","13.00361","77.61818"
"1392942507","2014/02/21 05:58:27","20.9","77","13.00361","77.61818"
"1392942815","2014/02/21 06:03:35","20.8","77","13.00361","77.61818"
"1392943122","2014/02/21 06:08:42","20.7","77","13.00361","77.61818"
"1392943430","2014/02/21 06:13:50","20.7","77","13.00361","77.61818"
"1392943686","2014/02/21 06:18:06","20.7","77","13.00361","77.61818"
"1392943994","2014/02/21 06:23:14","20.7","77","13.00361","77.61818"
"1392944302","2014/02/21 06:28:22","20.7","77","13.00361","77.61818"
"1392944609","2014/02/21 06:33:29","20.7","77","13.00361","77.61818"
"1392944917","2014/02/21 06:38:37","20.7","77","13.00361","77.61818"
"1392945224","2014/02/21 06:43:44","20.6","77","13.00361","77.61818"
"1392945532","2014/02/21 06:48:52","20.6","77","13.00361","77.61818"
"1392945840","2014/02/21 06:54:00","20.6","78","13.00361","77.61818"
"1392946147","2014/02/21 06:59:07","20.6","78","13.00361","77.61818"
"1392946455","2014/02/21 07:04:15","20.6","78","13.00361","77.61818"
"1392946762","2014/02/21 07:09:22","20.6","78","13.00361","77.61818"
"1392947070","2014/02/21 07:14:30","20.6","78","13.00361","77.61818"
"1392947326","2014/02/21 07:18:46","20.5","78","13.00361","77.61818"
"1392947633","2014/02/21 07:23:53","20.5","78","13.00361","77.61818"
"1392947941","2014/02/21 07:29:01","20.5","78","13.00361","77.61818"
"1392948249","2014/02/21 07:34:09","20.5","78","13.00361","77.61818"
"1392948557","2014/02/21 07:39:17","20.6","78","13.00361","77.61818"
"1392948864","2014/02/21 07:44:24","20.6","78","13.00361","77.61818"
"1392949171","2014/02/21 07:49:31","20.6","78","13.00361","77.61818"
"1392949480","2014/02/21 07:54:40","20.6","78","13.00361","77.61818"
"1392949787","2014/02/21 07:59:47","20.7","78","13.00361","77.61818"
"1392950094","2014/02/21 08:04:54","20.8","78","13.00361","77.61818"
"1392950402","2014/02/21 08:10:02","20.9","78","13.00361","77.61818"
"1392950709","2014/02/21 08:15:09","21","78","13.00361","77.61818"
"1392950966","2014/02/21 08:19:26","21.1","78","13.00361","77.61818"
"1392951273","2014/02/21 08:24:33","21.1","78","13.00361","77.61818"
"1392951581","2014/02/21 08:29:41","21.2","78","13.00361","77.61818"
"1392951888","2014/02/21 08:34:48","21.3","77","13.00361","77.61818"
"1392952196","2014/02/21 08:39:56","21.4","77","13.00361","77.61818"
"1392952504","2014/02/21 08:45:04","21.5","77","13.00361","77.61818"
"1392952811","2014/02/21 08:50:11","21.6","77","13.00361","77.61818"
"1392953119","2014/02/21 08:55:19","21.7","77","13.00361","77.61818"
"1392953428","2014/02/21 09:00:28","21.8","76","13.00361","77.61818"
"1392953735","2014/02/21 09:05:35","21.9","76","13.00361","77.61818"
"1392954042","2014/02/21 09:10:42","22","76","13.00361","77.61818"
"1392954093","2014/02/21 09:11:33","22","76","13.00361","77.61818"
"1392954401","2014/02/21 09:16:41","22.1","76","13.00361","77.61818"
"1392954708","2014/02/21 09:21:48","22.1","76","13.00361","77.61818"
"1392955016","2014/02/21 09:26:56","22.2","75","13.00361","77.61818"
"1392955323","2014/02/21 09:32:03","22.3","75","13.00361","77.61818"
"1392955631","2014/02/21 09:37:11","22.3","75","13.00361","77.61818"
"1392955785","2014/02/21 09:39:45","22.4","75","13.00361","77.61818"
"1392956092","2014/02/21 09:44:52","22.4","75","13.00361","77.61818"
"1392956399","2014/02/21 09:49:59","22.5","74","13.00361","77.61818"
"1392956708","2014/02/21 09:55:08","22.5","74","13.00361","77.61818"
"1392957015","2014/02/21 10:00:15","22.6","74","13.00361","77.61818"
"1392957320","2014/02/21 10:05:20","22.6","75","13.00361","77.61818"
"1392957628","2014/02/21 10:10:28","22.7","74","13.00361","77.61818"
"1392957937","2014/02/21 10:15:37","22.8","74","13.00361","77.61818"
"1392958245","2014/02/21 10:20:45","22.8","74","13.00361","77.61818"
"1392958552","2014/02/21 10:25:52","22.9","74","13.00361","77.61818"
"1392958860","2014/02/21 10:31:00","23","74","13.00361","77.61818"
"1392959115","2014/02/21 10:35:15","23","73","13.00361","77.61818"
"1392959423","2014/02/21 10:40:23","23.1","73","13.00361","77.61818"
"1392959733","2014/02/21 10:45:33","23.2","73","13.00361","77.61818"
"1392960040","2014/02/21 10:50:40","23.2","73","13.00361","77.61818"
"1392960347","2014/02/21 10:55:47","23.3","72","13.00361","77.61818"
"1392960655","2014/02/21 11:00:55","23.3","72","13.00361","77.61818"
"1392960962","2014/02/21 11:06:02","23.5","72","13.00361","77.61818"
"1392961270","2014/02/21 11:11:10","23.6","72","13.00361","77.61818"
"1392961578","2014/02/21 11:16:18","23.6","71","13.00361","77.61818"
"1392961886","2014/02/21 11:21:26","23.7","71","13.00361","77.61818"
"1392962193","2014/02/21 11:26:33","23.8","71","13.00361","77.61818"
"1392962500","2014/02/21 11:31:40","23.9","70","13.00361","77.61818"
"1392962757","2014/02/21 11:35:57","23.9","70","13.00361","77.61818"
"1392963064","2014/02/21 11:41:04","24","70","13.00361","77.61818"
"1392963372","2014/02/21 11:46:12","24.1","70","13.00361","77.61818"
"1392963679","2014/02/21 11:51:19","24.2","70","13.00361","77.61818"
"1392963987","2014/02/21 11:56:27","24.3","69","13.00361","77.61818"
"1392964295","2014/02/21 12:01:35","24.4","69","13.00361","77.61818"
"1392964602","2014/02/21 12:06:42","24.4","68","13.00361","77.61818"
"1392964910","2014/02/21 12:11:50","24.4","68","13.00361","77.61818"
"1392965218","2014/02/21 12:16:58","24.4","68","13.00361","77.61818"
"1392965525","2014/02/21 12:22:05","24.5","67","13.00361","77.61818"
"1392965833","2014/02/21 12:27:13","24.6","67","13.00361","77.61818"
"1392966140","2014/02/21 12:32:20","24.7","67","13.00361","77.61818"
"1392966448","2014/02/21 12:37:28","24.8","66","13.00361","77.61818"
"1392966704","2014/02/21 12:41:44","24.8","66","13.00361","77.61818"
"1392967012","2014/02/21 12:46:52","24.8","66","13.00361","77.61818"
"1392967320","2014/02/21 12:52:00","24.8","66","13.00361","77.61818"
"1392967627","2014/02/21 12:57:07","24.8","65","13.00361","77.61818"
"1392967935","2014/02/21 13:02:15","24.9","66","13.00361","77.61818"
"1392968242","2014/02/21 13:07:22","25","65","13.00361","77.61818"
"1392968550","2014/02/21 13:12:30","25.2","64","13.00361","77.61818"
"1392968858","2014/02/21 13:17:38","25.3","64","13.00361","77.61818"
"1392969165","2014/02/21 13:22:45","25.4","63","13.00361","77.61818"
"1392969472","2014/02/21 13:27:52","25.5","63","13.00361","77.61818"
"1392969779","2014/02/21 13:32:59","25.5","63","13.00361","77.61818"
"1392970088","2014/02/21 13:38:08","25.6","62","13.00361","77.61818"
"1392970344","2014/02/21 13:42:24","25.7","61","13.00361","77.61818"
"1392970651","2014/02/21 13:47:31","25.7","60","13.00361","77.61818"
"1392970959","2014/02/21 13:52:39","25.8","60","13.00361","77.61818"
"1392971266","2014/02/21 13:57:46","25.9","60","13.00361","77.61818"
"1392971574","2014/02/21 14:02:54","26","60","13.00361","77.61818"
"1392971882","2014/02/21 14:08:02","26","60","13.00361","77.61818"
"1392972189","2014/02/21 14:13:09","26.1","59","13.00361","77.61818"
"1392972497","2014/02/21 14:18:17","26.2","59","13.00361","77.61818"
"1392972804","2014/02/21 14:23:24","26.2","58","13.00361","77.61818"
"1392973112","2014/02/21 14:28:32","26.3","58","13.00361","77.61818"
"1392973420","2014/02/21 14:33:40","26.3","58","13.00361","77.61818"
"1392973676","2014/02/21 14:37:56","26.4","58","13.00361","77.61818"
"1392973984","2014/02/21 14:43:04","26.4","58","13.00361","77.61818"
"1392974291","2014/02/21 14:48:11","26.4","57","13.00361","77.61818"
"1392974599","2014/02/21 14:53:19","26.4","57","13.00361","77.61818"
"1392974906","2014/02/21 14:58:26","26.5","57","13.00361","77.61818"
"1392975214","2014/02/21 15:03:34","26.5","57","13.00361","77.61818"
"1392975522","2014/02/21 15:08:42","26.6","56","13.00361","77.61818"
"1392975829","2014/02/21 15:13:49","26.7","56","13.00361","77.61818"
"1392976137","2014/02/21 15:18:57","27","55","13.00361","77.61818"
"1392976445","2014/02/21 15:24:05","27","55","13.00361","77.61818"
"1392976752","2014/02/21 15:29:12","27","55","13.00361","77.61818"
"1392977060","2014/02/21 15:34:20","27","54","13.00361","77.61818"
"1392977316","2014/02/21 15:38:36","27","54","13.00361","77.61818"
"1392977624","2014/02/21 15:43:44","26.9","54","13.00361","77.61818"
"1392977931","2014/02/21 15:48:51","26.9","54","13.00361","77.61818"
"1392978239","2014/02/21 15:53:59","26.9","53","13.00361","77.61818"
"1392978546","2014/02/21 15:59:06","26.9","54","13.00361","77.61818"
"1392978853","2014/02/21 16:04:13","26.9","54","13.00361","77.61818"
"1392979162","2014/02/21 16:09:22","26.9","54","13.00361","77.61818"
"1392979469","2014/02/21 16:14:29","26.9","54","13.00361","77.61818"
"1392979777","2014/02/21 16:19:37","26.9","54","13.00361","77.61818"
"1392980085","2014/02/21 16:24:45","26.9","53","13.00361","77.61818"
"1392980392","2014/02/21 16:29:52","27.1","53","13.00361","77.61818"
"1392980700","2014/02/21 16:35:00","27.1","53","13.00361","77.61818"
"1392980955","2014/02/21 16:39:15","27.1","52","13.00361","77.61818"
"1392981263","2014/02/21 16:44:23","27.1","52","13.00361","77.61818"
"1392981570","2014/02/21 16:49:30","27.1","52","13.00361","77.61818"
"1392981878","2014/02/21 16:54:38","27","52","13.00361","77.61818"
"1392982186","2014/02/21 16:59:46","27","52","13.00361","77.61818"
"1392982493","2014/02/21 17:04:53","27","52","13.00361","77.61818"
"1392982801","2014/02/21 17:10:01","26.9","52","13.00361","77.61818"
"1392983109","2014/02/21 17:15:09","26.9","52","13.00361","77.61818"
"1392983416","2014/02/21 17:20:16","26.9","52","13.00361","77.61818"
"1392983724","2014/02/21 17:25:24","26.9","52","13.00361","77.61818"
"1392984031","2014/02/21 17:30:31","26.8","53","13.00361","77.61818"
"1392984339","2014/02/21 17:35:39","26.8","53","13.00361","77.61818"
"1392984595","2014/02/21 17:39:55","26.8","53","13.00361","77.61818"
"1392984903","2014/02/21 17:45:03","26.8","54","13.00361","77.61818"
"1392985211","2014/02/21 17:50:11","26.8","54","13.00361","77.61818"
"1392985518","2014/02/21 17:55:18","26.7","53","13.00361","77.61818"
"1392985826","2014/02/21 18:00:26","26.7","53","13.00361","77.61818"
"1392986133","2014/02/21 18:05:33","26.7","54","13.00361","77.61818"
"1392986440","2014/02/21 18:10:40","26.6","54","13.00361","77.61818"
"1392986748","2014/02/21 18:15:48","26.5","54","13.00361","77.61818"
"1392987056","2014/02/21 18:20:56","26.5","54","13.00361","77.61818"
"1392987364","2014/02/21 18:26:04","26.4","54","13.00361","77.61818"
"1392987672","2014/02/21 18:31:12","26.3","54","13.00361","77.61818"
"1392987979","2014/02/21 18:36:19","26.3","54","13.00361","77.61818"
"1392988287","2014/02/21 18:41:27","26.2","54","13.00361","77.61818"
"1392988594","2014/02/21 18:46:34","26.2","54","13.00361","77.61818"
"1392988851","2014/02/21 18:50:51","26.2","55","13.00361","77.61818"
"1392989158","2014/02/21 18:55:58","26.1","55","13.00361","77.61818"
"1392989466","2014/02/21 19:01:06","26.1","55","13.00361","77.61818"
"1392989774","2014/02/21 19:06:14","26.1","54","13.00361","77.61818"
"1392990081","2014/02/21 19:11:21","26.1","54","13.00361","77.61818"
"1392990389","2014/02/21 19:16:29","26","55","13.00361","77.61818"
"1392990695","2014/02/21 19:21:35","26","55","13.00361","77.61818"
"1392991003","2014/02/21 19:26:43","26","55","13.00361","77.61818"
"1392991312","2014/02/21 19:31:52","25.9","55","13.00361","77.61818"
"1392991619","2014/02/21 19:36:59","25.9","55","13.00361","77.61818"
"1392991926","2014/02/21 19:42:06","25.9","55","13.00361","77.61818"
"1392992182","2014/02/21 19:46:22","25.8","55","13.00361","77.61818"
"1392992490","2014/02/21 19:51:30","25.8","55","13.00361","77.61818"
"1392992798","2014/02/21 19:56:38","25.8","55","13.00361","77.61818"
"1392993106","2014/02/21 20:01:46","25.8","55","13.00361","77.61818"
"1392993414","2014/02/21 20:06:54","25.8","56","13.00361","77.61818"
"1392993721","2014/02/21 20:12:01","25.8","56","13.00361","77.61818"
"1392994029","2014/02/21 20:17:09","25.8","56","13.00361","77.61818"
"1392994337","2014/02/21 20:22:17","25.8","56","13.00361","77.61818"
"1392994644","2014/02/21 20:27:24","25.8","56","13.00361","77.61818"
"1392994952","2014/02/21 20:32:32","25.8","55","13.00361","77.61818"
"1392995259","2014/02/21 20:37:39","25.7","56","13.00361","77.61818"
"1392995515","2014/02/21 20:41:55","25.7","56","13.00361","77.61818"
"1392995822","2014/02/21 20:47:02","25.7","56","13.00361","77.61818"
"1392996130","2014/02/21 20:52:10","25.6","56","13.00361","77.61818"
"1392996438","2014/02/21 20:57:18","25.6","56","13.00361","77.61818"
"1392996745","2014/02/21 21:02:25","25.5","56","13.00361","77.61818"
"1392997053","2014/02/21 21:07:33","25.5","56","13.00361","77.61818"
"1392997361","2014/02/21 21:12:41","25.5","56","13.00361","77.61818"
"1392997668","2014/02/21 21:17:48","25.4","56","13.00361","77.61818"
"1392997976","2014/02/21 21:22:56","25.3","56","13.00361","77.61818"
"1392998283","2014/02/21 21:28:03","25.2","57","13.00361","77.61818"
"1392998591","2014/02/21 21:33:11","25.2","57","13.00361","77.61818"
"1392998899","2014/02/21 21:38:19","25.1","57","13.00361","77.61818"
"1392999155","2014/02/21 21:42:35","25","57","13.00361","77.61818"
"1392999463","2014/02/21 21:47:43","24.9","57","13.00361","77.61818"
"1392999770","2014/02/21 21:52:50","24.9","57","13.00361","77.61818"
"1393000078","2014/02/21 21:57:58","24.8","57","13.00361","77.61818"
"1393000385","2014/02/21 22:03:05","24.8","57","13.00361","77.61818"
"1393000693","2014/02/21 22:08:13","24.8","58","13.00361","77.61818"
"1393001001","2014/02/21 22:13:21","24.7","58","13.00361","77.61818"
"1393001308","2014/02/21 22:18:28","24.6","58","13.00361","77.61818"
"1393001615","2014/02/21 22:23:35","24.6","58","13.00361","77.61818"
"1393001922","2014/02/21 22:28:42","24.5","59","13.00361","77.61818"
"1393002230","2014/02/21 22:33:50","24.5","59","13.00361","77.61818"
"1393002538","2014/02/21 22:38:58","24.4","59","13.00361","77.61818"
"1393002795","2014/02/21 22:43:15","24.3","59","13.00361","77.61818"
"1393003103","2014/02/21 22:48:23","24.3","59","13.00361","77.61818"
"1393003409","2014/02/21 22:53:29","24.2","60","13.00361","77.61818"
"1393003717","2014/02/21 22:58:37","24.2","60","13.00361","77.61818"
"1393004025","2014/02/21 23:03:45","24.1","60","13.00361","77.61818"
"1393004332","2014/02/21 23:08:52","24","60","13.00361","77.61818"
"1393004640","2014/02/21 23:14:00","24","60","13.00361","77.61818"
"1393004947","2014/02/21 23:19:07","23.9","60","13.00361","77.61818"
"1393005256","2014/02/21 23:24:16","23.9","60","13.00361","77.61818"
"1393005564","2014/02/21 23:29:24","23.8","60","13.00361","77.61818"
"1393005870","2014/02/21 23:34:30","23.8","61","13.00361","77.61818"
"1393006127","2014/02/21 23:38:47","23.7","61","13.00361","77.61818"
"1393006434","2014/02/21 23:43:54","23.7","61","13.00361","77.61818"
"1393006742","2014/02/21 23:49:02","23.6","61","13.00361","77.61818"
"1393007049","2014/02/21 23:54:09","23.6","61","13.00361","77.61818"
"1393007357","2014/02/21 23:59:17","23.5","62","13.00361","77.61818"
"1393007665","2014/02/22 00:04:25","23.5","62","13.00361","77.61818"